Home > Weather > Sopron > Past weeks

Flag for Hungary Weather for the Past 2 Weeks in Sopron, Hungary

Now
42 °F

Rain. Overcast.


Feels Like: 39 °F
Forecast: 35 / 45 °F
Wind: 5 mph from West

Location: Eisenstadt

Current Time: Feb 10, 2016 at 7:04:35 AM

Latest Report: Feb 10, 2016 at 5:00 AM


Visibility: 6 mi

Pressure: 29.32 "Hg

Humidity: 85%

Dew point: 38 °F

Location of SopronLocation

Historic Weather in Sopron — Graph

°F

Sopron Temperature Yesterday

Maximum temperature yesterday: 56 °F (at 3:00 PM)
Minimum temperature yesterday: 44 °F (at 4:00 AM)
Average temperature yesterday: 52 °F

High & Low Weather Summary for the Past Weeks

 TemperatureHumidityPressure
High60 °F (Feb 1, 1:00 PM)100% (Jan 30, 8:00 PM)30.43 "Hg (Jan 30, 8:00 PM)
Low30 °F (Jan 27, 8:00 AM)42% (Feb 7, 11:00 AM)29.29 "Hg (Feb 10, 1:00 AM)
Average44 °F79%30.08 "Hg
* Reported Jan 26 6:00 AM — Feb 10 5:00 AM, Sopron, Weather by CustomWeather, © 2016

Note: Actual official high and low records may vary slightly from our data, if they occured in-between our weather recording intervals... More about our weather records

Advertising

Sopron Weather History for the Previous 24 Hours

 ConditionsComfort  
Time TempWeatherWind HumidityBarometerVisibility
5:00 AM
Wed, Feb 10
42 °FRain. Overcast.5 mph85%29.32 "Hg6 mi
4:00 AM43 °FRain. Overcast.3 mph89%29.35 "Hg6 mi
3:00 AM50 °FFog.5 mph74%29.32 "HgN/A
1:00 AM52 °FCool.6 mph64%29.29 "HgN/A
12:00 AM52 °FCool.6 mph65%29.32 "HgN/A
11:00 PM
Tue, Feb 9
53 °FCool.8 mph64%29.35 "HgN/A
10:00 PM52 °FOvercast.7 mph65%29.38 "Hg9 mi
9:00 PM53 °FCool.8 mph66%29.41 "HgN/A
8:00 PM53 °FCool.9 mph66%29.41 "HgN/A
7:00 PM53 °FOvercast.14 mph63%29.41 "Hg12 mi
6:00 PM54 °FCool.8 mph60%29.47 "HgN/A
5:00 PM56 °FRefreshingly cool.10 mph57%29.50 "HgN/A
3:00 PM56 °FRefreshingly cool.7 mph55%29.60 "HgN/A
2:00 PM55 °FCool.6 mph57%29.67 "HgN/A
1:00 PM52 °FOvercast.3 mph69%29.71 "Hg12 mi
12:00 PM53 °FCool.5 mph68%29.77 "HgN/A
8:00 AM45 °FQuite cool.2 mph80%29.88 "HgN/A
Weather by CustomWeather, © 2016

See weather overviewHow to use our weather pages